Change the Weather History Date:

Tuesday, October 1, 2013

  Actual Average Record
Temperature  
Mean Temperature 66 °F -  
Max Temperature 79 °F 64 °F 87 °F (1971)
Min Temperature 54 °F 46 °F 33 °F (1974)
Cooling Degree Days 2    
Growing Degree Days 16 (Base 50)    
Moisture  
Dew Point 55 °F    
Average Humidity 69    
Maximum Humidity 90    
Minimum Humidity 50    
Precipitation  
Precipitation 0.00 in - - ()
Sea Level Pressure  
Sea Level Pressure 29.89 in    
Wind  
Wind Speed 9 mph (SW)    
Max Wind Speed 17 mph    
Max Gust Speed 25 mph    
Visibility 10 miles    
Events      
Averages and records for this station are not official NWS values.
T = Trace of Precipitation, MM = Missing Value Source: NWS Daily Summary

Daily Weather History Graph

Daily Weather History Graph

Search for Another Location

Airport or City:

Trip Planner

Search our weather history database for the weather conditions in past years. The results will help you decide how hot, cold, wet, or windy it might be!

Date:

Astronomy

Oct. 01, 2013 Rise Set
Actual Time 6:48 AM CDT 6:31 PM CDT
Civil Twilight 6:19 AM CDT 6:59 PM CDT
Nautical Twilight 5:46 AM CDT 7:33 PM CDT
Astronomical Twilight 5:12 AM CDT 8:07 PM CDT
Moon 3:16 AM CDT (10/1) 4:39 PM CDT (10/1)
Length of Visible Light 12h 39m
Length of Day
11h 42m
Waning Crescent, 12% of the Moon is Illuminated
Oct 1
Waning Crescent
Oct 4
New
Oct 11
First Quarter
Oct 18
Full
Oct 26
Last Quarter

Hourly Weather History & Observations

Time (CDT) Temp. Dew Point Humidity Pressure Visibility Wind Dir Wind Speed Gust Speed Precip Events Conditions
12:56 AM 55.0 °F 51.1 °F 86% 29.90 in 10.0 mi South 6.9 mph - N/A   Clear
1:56 AM 55.9 °F 51.1 °F 84% 29.91 in 10.0 mi South 5.8 mph - N/A   Clear
2:56 AM 55.0 °F 51.1 °F 86% 29.90 in 10.0 mi South 8.1 mph - N/A   Clear
3:56 AM 55.0 °F 51.1 °F 86% 29.88 in 10.0 mi South 8.1 mph - N/A   Clear
4:56 AM 55.0 °F 51.1 °F 86% 29.89 in 10.0 mi South 5.8 mph - N/A   Clear
5:56 AM 54.0 °F 51.1 °F 90% 29.89 in 10.0 mi South 4.6 mph - N/A   Clear
6:56 AM 54.0 °F 51.1 °F 90% 29.89 in 10.0 mi South 8.1 mph - N/A   Clear
7:56 AM 57.0 °F 54.0 °F 89% 29.89 in 10.0 mi South 9.2 mph - N/A   Clear
8:56 AM 62.1 °F 57.0 °F 84% 29.87 in 10.0 mi South 12.7 mph - N/A   Clear
9:56 AM 70.0 °F 60.1 °F 71% 29.84 in 10.0 mi SSW 13.8 mph - N/A   Clear
10:56 AM 73.0 °F 60.1 °F 64% 29.84 in 10.0 mi SSW 11.5 mph - N/A   Clear
11:56 AM 77.0 °F 59.0 °F 54% 29.83 in 10.0 mi WSW 15.0 mph 25.3 mph N/A   Clear
12:56 PM 77.0 °F 59.0 °F 54% 29.83 in 10.0 mi SW 16.1 mph 23.0 mph N/A   Clear
1:56 PM 78.1 °F 60.1 °F 54% 29.84 in 10.0 mi West 17.3 mph 25.3 mph N/A   Clear
2:56 PM 78.1 °F 59.0 °F 52% 29.84 in 10.0 mi WSW 16.1 mph 25.3 mph N/A   Clear
3:56 PM 79.0 °F 59.0 °F 50% 29.84 in 10.0 mi West 11.5 mph 23.0 mph N/A   Clear
4:56 PM 78.1 °F 59.0 °F 52% 29.85 in 10.0 mi WSW 13.8 mph - N/A   Clear
5:56 PM 75.9 °F 59.0 °F 56% 29.87 in 10.0 mi WSW 11.5 mph 17.3 mph N/A   Clear
6:56 PM 73.0 °F 59.0 °F 61% 29.89 in 10.0 mi WSW 8.1 mph - N/A   Clear
7:56 PM 72.0 °F 57.9 °F 61% 29.91 in 10.0 mi WSW 6.9 mph - N/A   Clear
8:56 PM 69.1 °F 57.0 °F 65% 29.93 in 10.0 mi WNW 8.1 mph - N/A   Clear
9:56 PM 66.0 °F 55.0 °F 68% 29.95 in 10.0 mi WNW 8.1 mph - N/A   Clear
10:56 PM 64.0 °F 52.0 °F 65% 29.97 in 10.0 mi WNW 5.8 mph - N/A   Clear
11:56 PM 64.0 °F 45.0 °F 50% 29.99 in 10.0 mi WNW 9.2 mph - N/A   Clear